KB6OQJ Weather Reports


Display with metric or nautical units.
time (UTC)temp
F
wind
direction
speed
MPH
gust
MPH
rain 1hr
in
rain 24hr
in
rain mn
in
humidity
%
barometer
mb
20260510141004 52 0 0.0 0.0 0.00 0.00 0.00 3 824.4
20260510140003 51 0 0.0 0.0 0.00 0.00 0.00 3 824.4
20260510135004 51 0 0.0 0.0 0.00 0.00 0.00 3 824.4
20260510134003 51 0 0.0 0.0 0.00 0.00 0.00 3 824.4
20260510133004 51 0 0.0 0.0 0.00 0.00 0.00 3 824.4
20260510132004 51 0 0.0 0.0 0.00 0.00 0.00 3 1011.4
20260510131004 52 0 0.0 0.0 0.00 0.00 0.00 3 1011.4
20260510130004 52 0 0.0 0.0 0.00 0.00 0.00 3 1011.4
20260510125004 52 5 0.0 0.0 0.00 0.00 0.00 3 1012.2
20260510124004 52 107 0.0 0.0 0.00 0.00 0.00 3 949.2
20260510123003 52 107 0.0 0.0 0.00 0.00 0.00 3 1012.0
20260510122003 52 81 0.0 0.0 0.00 0.00 0.00 3 1012.0
20260510121004 52 344 0.0 0.0 0.00 0.00 0.00 3 1012.0
20260510115004 52 344 0.0 0.0 0.00 0.00 0.00 3 952.4
20260510114004 52 344 0.0 0.0 0.00 0.00 0.00 3 952.4
20260510113004 52 344 0.0 0.0 0.00 0.00 0.00 3 952.4
20260510112004 52 344 0.0 0.0 0.00 0.00 0.00 3 952.4
20260510111004 52 344 0.0 0.0 0.00 0.00 0.00 3 952.4
20260510110004 52 344 0.0 0.0 0.00 0.00 0.00 3 952.4
20260510105004 52 344 0.0 9.0 0.00 0.00 0.00 3 952.4
20260510104004 82 286 2.0 9.0 0.00 0.00 0.00 47 952.4
20260509215004 82 308 2.0 14.0 0.00 0.00 0.00 48 952.4
20260509214004 82 305 6.0 15.0 0.00 0.00 0.00 47 952.4
20260509213004 82 287 5.0 12.0 0.00 0.00 0.00 48 952.4
20260509212004 82 282 5.0 13.0 0.00 0.00 0.00 48 952.4
20260509211003 82 284 5.0 12.0 0.00 0.00 0.00 48 952.4
20260509210003 81 270 2.0 7.0 0.00 0.00 0.00 49 952.4
20260509205005 81 276 2.0 10.0 0.00 0.00 0.00 50 952.4
20260509173004 59 201 1.0 3.0 0.00 0.00 0.00 3 950.1
20260509172004 58 153 0.0 0.0 0.00 0.00 0.00 3 950.1
20260509171004 56 172 0.0 2.0 0.00 0.00 0.00 3 950.1
20260509165004 55 71 0.0 0.0 0.00 0.00 0.00 3 1013.9
20260509164004 54 84 0.0 0.0 0.00 0.00 0.00 3 1013.9
20260509160004 53 80 0.0 0.0 0.00 0.00 0.00 3 1013.9
20260509155004 53 104 0.0 0.0 0.00 0.00 0.00 3 1013.9
20260509154003 53 104 0.0 0.0 0.00 0.00 0.00 3 1013.9
20260509153004 53 104 0.0 0.0 0.00 0.00 0.00 3 1013.9
20260509152004 52 103 0.0 0.0 0.00 0.00 0.00 3 1013.9
20260509151004 52 103 0.0 0.0 0.00 0.00 0.00 3 1013.9
20260509150004 52 103 0.0 0.0 0.00 0.00 0.00 3 1013.7
20260509145004 52 103 0.0 0.0 0.00 0.00 0.00 3 1010.7
20260509144004 52 103 0.0 0.0 0.00 0.00 0.00 3 1010.7
20260509143004 52 103 0.0 0.0 0.00 0.00 0.00 3 1010.7
20260509142004 52 116 0.0 0.0 0.00 0.00 0.00 3 1010.8